Location: Hamayl? Da??
(36.7028°N, 30.1716°E)
Time: 08:40:57
(UTC+00:00)

Vanguard 1 - Pass Details

Date: 24 December 2025
Orbit: 651 x 3820 km, 34.2° (Epoch: 18 January)

Event Time Altitude Azimuth Distance (km) Brightness Sun altitude
Rises 04:02:17 0° 232° (SW) 3,504 12.6 -13.1°
Reaches altitude 10° 04:05:19 10° 222° (SW) 2,308 11.8 -12.5°
Maximum altitude 04:09:42 31° 160° (SSE) 1,155 10.9 -11.7°
Drops below altitude 10° 04:13:38 10° 97° (E) 2,057 13.1 -11.0°
Sets 04:16:11 0° 86° (E) 3,054 13.9 -10.5°
